Visibility
15.0 15.0 15.0 15.0 14.8 10.7 0.6 13.2 15.0 15.0 15.0 12.9 9.2 3.6 4.0 12.8 11.9 8.4 12.1 15.0 15.0 15.0
15.0 15.0 15.0 15.0 15.0 6.2 6.2 15.0 15.0 15.0 15.0 15.0 6.9 10.7 9.7 15.0 15.0 15.0 15.0 15.0 15.0 15.0
15.0 15.0 15.0 15.0 11.9 2.1 14.5 15.0 15.0 15.0 15.0 15.0 15.0 15.0 15.0 15.0 15.0 15.0 15.0 15.0 15.0 15.0
15.0 15.0 15.0 9.0 10.7 2.2 6.4 14.9 15.0 15.0 15.0 15.0 15.0 15.0 15.0 15.0 15.0 15.0 15.0 15.0 15.0 15.0
15.0 15.0 15.0 11.5 15.0 9.0 3.9 6.5 13.3 15.0 15.0 15.0 15.0 15.0 15.0 15.0 15.0 15.0 15.0 15.0 15.0 15.0
11.8 15.0 15.0 15.0 2.9 7.3 6.0 5.3 6.7 15.0 15.0 15.0 15.0 15.0 14.6 15.0 15.0 15.0 15.0 15.0 15.0 15.0
1.5 9.1 15.0 15.0 8.8 0.4 6.0 6.0 11.1 15.0 15.0 15.0 15.0 15.0 15.0 13.7 15.0 15.0 11.0 15.0 15.0 15.0
0.2 6.8 15.0 15.0 14.7 14.4 5.1 4.7 15.0 15.0 15.0 15.0 15.0 15.0 15.0 14.2 15.0 15.0 15.0 15.0 15.0 15.0
0.1 1.8 15.0 15.0 4.8 8.6 2.6 4.9 3.9 15.0 14.1 15.0 15.0 14.3 10.6 14.6 15.0 15.0 15.0 15.0 15.0 15.0
0.1 0.6 2.4 14.8 10.5 15.0 0.5 3.1 2.1 8.9 15.0 15.0 15.0 15.0 11.5 15.0 15.0 15.0 15.0 15.0 15.0 15.0
0.1 0.4 15.0 15.0 15.0 6.3 12.0 1.2 15.0 9.1 13.3 15.0 15.0 8.8 15.0 15.0 15.0 15.0 15.0 15.0 15.0 15.0
0.2 0.3 8.2 15.0 8.8 2.7 0.9 1.3 4.5 4.2 4.8 15.0 15.0 15.0 15.0 15.0 15.0 15.0 15.0 15.0 15.0 15.0
0.2 0.2 1.6 8.0 0.8 0.9 0.9 2.6 4.6 6.1 14.9 13.2 14.8 15.0 15.0 15.0 15.0 15.0 15.0 15.0 15.0 10.6
0.1 0.1 0.3 1.1 1.8 0.3 0.8 3.7 13.2 0.3 14.6 11.1 15.0 6.7 9.0 15.0 15.0 15.0 15.0 15.0 15.0 15.0